Geely Xingzuo 03 zu 06 xing

operational
NORAD ID: 61016 Int'l Des: 2024-159 Owner: GEESP Country: CN Constellation: geesatcom
LEOCIRCULAR

Geely Xingzuo 03 zu 06 xingについて

説明を読み込み中...

リアルタイム位置

3D地球を読み込み中...

次回通過

高度履歴

Altitude vs Time

uPlot chart will show altitude changes over time

軌道要素

1 61016U 24159F 26062.05594130 .00004986 00000-0 62175-3 0 9999
2 61016 49.9956 215.4799 0016594 31.3003 328.8920 14.83760016 81007
Epoch: Mar 3, 2026 • Age: 15 hours

現在のステータス

高度 623.2 km
速度 7.55 km/s
衛星直下点 20.88°N, 11.45°W
打ち上げ日 Sep 5, 2024
運用期間 1.4 years
タイプ other

技術仕様

分類 Payload
質量 130.00 kg
乾燥質量 130.00 kg
総質量 130.00 kg
長さ 1.00 m
直径 0.50 m
スパン 2.00 m
形状 Box + 2 pan
製造者 GWCG
バスタイプ GPS100
フェーズステータス In Orbit
所有者/国 GEESP/CN

大規模コンステレーション

Loading constellations...